Meath Environmental Platform

Observations for Trim Market St

Time AQI Temp °C Hum % Pres Pa CO μg/m³ H₂S μg/m³ NO μg/m³ NO₂ μg/m³ O₃ μg/m³ SO₂ μg/m³ PM1 μg/m³ PM2.5 μg/m³ PM10 μg/m³
Tuesday 11 August 2026
17:43 3 35.5 21 66,667 0 16.27 0.09 16.42 45.24 4.84 0.71 4.83 5.31
17:42 3 35.7 20 66,710 0 20.74 0.08 20.12 64.61 4.75 0.71 4.27 4.7
17:41 3 35.8 20 66,708 0 20 0.06 17.77 67.57 4.57 1.43 5.39 5.93
17:40 3 35.9 20 66,702 0 23.29 0.05 28.16 68.81 4.75 0.71 4.29 4.72
17:39 3 36.1 20 66,718 0 20.17 0.03 17.99 57.12 5.3 0.71 4.29 4.72
17:38 3 36.2 20 66,712 0 23.97 0.07 19.48 79.66 5.77 1.43 4.85 5.34
17:37 3 36.4 20 66,733 0 19.57 0.06 17.56 64.32 5.48 0.71 4.86 5.34
17:36 3 36.5 20 66,758 0 29.41 0.03 40.4 62.6 5.2 1.43 4.87 5.35
17:35 3 36.7 20 66,788 0 18.6 0.02 16.82 67.32 5.48 1.43 4.87 5.36
17:31 3 37.4 19 66,841 0 11.98 0.03 16.19 70.68 6.04 0 4.89 5.38
17:29 3 37.7 19 66,845 0 11.46 0 17.55 69.24 5.85 1.43 4.9 5.39
17:26 3 38 19 66,865 0 18.85 0.16 17.33 60.7 6.05 0.71 4.34 4.73
17:23 3 38.3 19 66,928 0 9.06 0.12 16.38 42.92 5.52 2.85 6.57 7.23
17:18 3 38.5 19 66,953 0 1.8 0.09 16.02 38.71 5.23 1.43 5.46 6.01
17:17 3 38.5 19 66,965 0 14.3 0.03 15.76 70.25 6.51 1.43 5.44 5.67
17:16 3 38.5 20 66,979 0 21.16 0.05 18.71 49.61 6.05 1.43 5.43 5.98
17:15 3 38.5 20 66,965 0 31.08 0.06 33.25 58.55 6.1 0.71 5.43 5.97
17:13 3 38.5 20 66,988 0 37.37 0.18 26.4 66.58 7.03 2.14 5.99 6.59
17:12 3 38.5 20 66,998 0 36.12 0 21.86 59.08 7.32 0 3.76 4.13
17:11 3 38.6 19 66,990 0 36.44 0 47.07 64.01 5.61 0.71 4.88 5.37